Location: Dodgeville, WI 53533, USA
(43.0344°N, 90.0900°W)
Time: 04:20:44
(UTC-06:00)

X-37B - Pass Details

Date: 26 January 2021
Orbit: 383 x 391 km, 45.0° (Epoch: 27 February)

Event Time Altitude Azimuth Distance (km) Brightness Sun altitude
Rises 19:49:34 0° 286° (WNW) 2,276 5.6 -29.9°
Reaches altitude 10° 19:51:40 10° 282° (WNW) 1,420 4.3 -30.3°
Enters shadow 19:51:53 12° 281° (W) 1,328 4.1 -30.4°
